Simultaneous Nadir Overpasses (SNOs) Predictions

Prediction of SNOs between GOES-16 and NOAA-19 Satellite Orbit:

Table of predicted SNOs for the next 14.0 days since TLE Epoch: 8/6/2022
Index Date Time (GOES-16) GOES-16 Lat,Lon NOAA-19 Lat,Lon Distance(km) Time Diff (sec)
1 08/06/2022 12:48:55 0.00, -75.21 -0.43, -73.29 218.16 80
2 08/09/2022 01:06:56 0.00, -75.20 -0.70, -78.19 342.50 80
3 08/10/2022 00:57:44 0.01, -75.20 -0.01, -75.31 12.15 80
4 08/11/2022 00:43:13 0.01, -75.20 0.68, -72.42 318.66 80
5 08/13/2022 13:06:19 -0.01, -75.24 0.43, -77.26 230.22 80
6 08/14/2022 12:51:47 -0.01, -75.25 -0.25, -74.37 101.37 80
7 08/15/2022 12:39:55 -0.01, -75.27 -0.87, -71.47 433.07 80
8 08/17/2022 01:15:06 0.01, -75.28 -0.88, -79.26 454.32 80
9 08/18/2022 01:03:14 0.01, -75.30 -0.24, -76.36 122.01 80
10 08/19/2022 00:48:42 0.01, -75.31 0.46, -73.48 210.45 80
